Back to catalog

SL-14 DEB

AlivePO
NORAD 69736·DEBRIS·🇨🇳 China

Launched Jan 17, 1986 from Plesetsk Cosmodrome

Loading…

Next Passes (next 24 hours)

TLE

StaleSource: Space-Track

Epoch: Aug 29, 2026, 08:25 UTC

1 69736U 86006E   26241.35094926  .00002930  00000-0  37626-3 0  9995
2 69736  82.5497 107.8515 0119149 115.1157 246.2473 14.75910439 66093

Track SL-14 DEB in real time with AllMySat

Download on the App Store